GW5682 Weather Reports


Display with metric or nautical units.
time (UTC)temp
F
wind
direction
speed
MPH
gust
MPH
rain 1hr
in
rain 24hr
in
rain mn
in
humidity
%
barometer
mb
20260503221702 85 225 3.0 4.0 0.00 0.00 0.00 22 1018.0
20260503220617 85 90 2.0 3.0 0.00 0.00 0.00 24 1018.1
20260503215641 85 180 3.0 5.0 0.00 0.00 0.00 25 1018.0
20260503214617 85 180 3.0 5.0 0.00 0.00 0.00 23 1018.2
20260503213701 86 135 3.0 5.0 0.00 0.00 0.00 25 1018.3
20260503212617 85 90 3.0 4.0 0.00 0.00 0.00 24 1018.5
20260503211642 85 0 1.0 2.0 0.00 0.00 0.00 25 1018.7
20260503210617 86 135 2.0 3.0 0.00 0.00 0.00 23 1018.7
20260503205701 85 180 5.0 7.0 0.00 0.00 0.00 26 1019.0
20260503204617 84 270 5.0 7.0 0.00 0.00 0.00 25 1019.2
20260503203641 84 270 4.0 7.0 0.00 0.00 0.00 29 1019.3
20260503202617 85 68 2.0 4.0 0.00 0.00 0.00 26 1019.6
20260503201641 85 135 2.0 3.0 0.00 0.00 0.00 29 1019.7
20260503200617 84 270 2.0 3.0 0.00 0.00 0.00 25 1020.0
20260503195641 85 225 1.0 2.0 0.00 0.00 0.00 25 1019.9
20260503194637 83 135 3.0 4.0 0.00 0.00 0.00 29 1020.2
20260503193641 82 225 7.0 9.0 0.00 0.00 0.00 23 1020.2
20260503192617 85 270 2.0 3.0 0.00 0.00 0.00 28 1020.7
20260503191641 84 180 3.0 7.0 0.00 0.00 0.00 29 1020.5
20260503190637 84 135 3.0 5.0 0.00 0.00 0.00 30 1020.7
20260503185641 83 90 2.0 3.0 0.00 0.00 0.00 30 1020.7
20260503184617 82 45 1.0 3.0 0.00 0.00 0.00 31 1021.0
20260503183641 83 90 2.0 3.0 0.00 0.00 0.00 30 1020.9
20260503182617 82 225 7.0 9.0 0.00 0.00 0.00 30 1021.2
20260503181641 80 315 4.0 7.0 0.00 0.00 0.00 30 1021.4
20260503180617 82 90 2.0 3.0 0.00 0.00 0.00 31 1021.7
20260503175641 82 225 7.0 10.0 0.00 0.00 0.00 31 1021.8
20260503174617 80 225 5.0 7.0 0.00 0.00 0.00 36 1022.0
20260503173641 80 270 2.0 3.0 0.00 0.00 0.00 37 1022.0
20260503172617 79 135 3.0 4.0 0.00 0.00 0.00 36 1022.2
20260503171641 81 180 5.0 7.0 0.00 0.00 0.00 38 1022.3
20260503170637 80 270 2.0 3.0 0.00 0.00 0.00 40 1022.4
20260503150617 73 225 4.0 5.0 0.00 0.00 0.00 40 1022.8
20260503130637 57 135 1.0 2.0 0.00 0.00 0.00 84 1022.9
20260503110657 49 0.0 0.0 0.00 0.00 0.00 85 1021.9
20260503080129 53 0.0 0.0 0.00 0.00 0.00 74 1021.7
20260503072131 52 0.0 1.0 0.00 0.00 0.00 78 1021.8
20260503071127 52 0.0 0.0 0.00 0.00 0.00 76 1021.8
20260503070131 52 0.0 1.0 0.00 0.00 0.00 74 1021.8
20260503060131 55 0.0 0.0 0.00 0.00 0.00 66 1021.9
20260503055127 56 0.0 0.0 0.00 0.00 0.00 65 1021.7
20260503054131 56 0.0 1.0 0.00 0.00 0.00 65 1021.7
20260503053107 56 0.0 0.0 0.00 0.00 0.00 66 1021.7
20260503052130 56 0.0 1.0 0.00 0.00 0.00 66 1021.6
20260503051107 56 45 1.0 1.0 0.00 0.00 0.00 66 1021.5
20260503050131 56 0.0 1.0 0.00 0.00 0.00 67 1021.6
20260503045127 56 0.0 1.0 0.00 0.00 0.00 66 1021.5
20260503044131 56 0.0 1.0 0.00 0.00 0.00 66 1021.6
20260503043107 57 0.0 0.0 0.00 0.00 0.00 65 1021.5
20260503042151 57 0.0 0.0 0.00 0.00 0.00 65 1021.7
20260503041106 57 0.0 0.0 0.00 0.00 0.00 64 1021.7
20260503040130 58 0.0 0.0 0.00 0.00 0.00 64 1021.6
20260503035107 58 0.0 0.0 0.00 0.00 0.00 65 1021.7
20260503034131 58 0.0 0.0 0.00 0.00 0.00 64 1021.5
20260503033107 58 0.0 0.0 0.00 0.00 0.00 63 1021.5
20260503032131 59 0.0 0.0 0.00 0.00 0.00 62 1021.5
20260503031107 59 0.0 0.0 0.00 0.00 0.00 62 1021.4
20260503030131 60 0.0 0.0 0.00 0.00 0.00 61 1021.4
20260503025107 60 0.0 0.0 0.00 0.00 0.00 60 1021.1
20260503024131 61 0.0 0.0 0.00 0.00 0.00 57 1021.2
20260503023107 62 0.0 0.0 0.00 0.00 0.00 56 1021.1
20260503022131 62 0.0 0.0 0.00 0.00 0.00 53 1021.1
20260503021107 63 0.0 0.0 0.00 0.00 0.00 53 1020.9
20260503020130 64 0.0 0.0 0.00 0.00 0.00 50 1020.8
20260503015107 64 0.0 0.0 0.00 0.00 0.00 48 1020.7
20260503014131 65 0.0 0.0 0.00 0.00 0.00 44 1020.8
20260503013107 66 0.0 0.0 0.00 0.00 0.00 43 1020.8
20260503012131 67 0.0 0.0 0.00 0.00 0.00 41 1020.6
20260503011107 68 0.0 0.0 0.00 0.00 0.00 41 1020.6
20260503010151 69 0.0 0.0 0.00 0.00 0.00 41 1020.5
20260503005207 70 225 1.0 1.0 0.00 0.00 0.00 40 1020.6
20260503004131 71 45 1.0 2.0 0.00 0.00 0.00 39 1020.3
20260503003107 72 0.0 0.0 0.00 0.00 0.00 37 1020.4
20260503002131 73 0.0 1.0 0.00 0.00 0.00 33 1020.2
20260503001106 75 90 1.0 2.0 0.00 0.00 0.00 31 1020.3
20260503000131 76 0.0 1.0 0.00 0.00 0.00 30 1020.3
20260502235107 76 270 1.0 2.0 0.00 0.00 0.00 31 1020.4
20260502234131 75 0.0 1.0 0.00 0.00 0.00 30 1020.5
20260502233127 76 225 2.0 3.0 0.00 0.00 0.00 30 1020.3
20260502232131 76 45 2.0 3.0 0.00 0.00 0.00 28 1020.4
20260502231107 76 315 1.0 2.0 0.00 0.00 0.00 30 1020.6
20260502230131 77 0.0 1.0 0.00 0.00 0.00 30 1020.6
20260502225107 76 270 1.0 2.0 0.00 0.00 0.00 30 1020.7
20260502224131 77 45 1.0 2.0 0.00 0.00 0.00 27 1020.6
20260502223127 77 248 3.0 3.0 0.00 0.00 0.00 26 1020.7